TimeEST,TemperatureF,Dew PointF,Humidity,Sea Level PressureIn,VisibilityMPH,Wind Direction,Wind SpeedMPH,Gust SpeedMPH,PrecipitationIn,Events,Conditions,WindDirDegrees,DateUTC
12:53 AM,37.9,18.0,45,29.93,10.0,WNW,20.7,26.5,N/A,,Overcast,290,2012-11-24 05:53:00
1:53 AM,37.0,16.0,42,29.92,10.0,WNW,15.0,27.6,N/A,,Mostly Cloudy,290,2012-11-24 06:53:00
3:53 AM,36.0,17.1,46,29.93,10.0,WNW,12.7,23.0,N/A,,Overcast,300,2012-11-24 08:53:00
4:53 AM,36.0,17.1,46,29.94,10.0,WNW,13.8,25.3,N/A,,Overcast,290,2012-11-24 09:53:00
5:53 AM,36.0,18.0,48,29.95,10.0,WNW,10.4,-,N/A,,Overcast,300,2012-11-24 10:53:00
6:53 AM,35.1,18.0,50,29.96,10.0,WNW,15.0,-,N/A,,Overcast,290,2012-11-24 11:53:00
7:53 AM,35.1,19.0,52,29.98,10.0,WSW,6.9,20.7,N/A,,Overcast,250,2012-11-24 12:53:00
8:53 AM,36.0,19.0,50,29.99,10.0,West,12.7,18.4,N/A,,Overcast,270,2012-11-24 13:53:00
9:53 AM,37.9,19.0,47,29.99,10.0,Variable,4.6,16.1,N/A,,Overcast,0,2012-11-24 14:53:00
10:53 AM,37.0,19.0,48,29.99,10.0,West,8.1,25.3,N/A,,Overcast,280,2012-11-24 15:53:00
11:53 AM,37.9,19.0,47,29.98,10.0,WNW,18.4,27.6,N/A,,Overcast,300,2012-11-24 16:53:00
12:53 PM,37.9,17.1,43,29.97,10.0,WNW,13.8,27.6,N/A,,Overcast,300,2012-11-24 17:53:00
1:53 PM,39.0,17.1,41,29.97,10.0,West,11.5,21.9,N/A,,Overcast,280,2012-11-24 18:53:00
2:53 PM,37.9,17.1,43,29.98,10.0,WNW,11.5,26.5,N/A,,Overcast,290,2012-11-24 19:53:00
3:53 PM,37.0,17.1,44,29.99,10.0,West,16.1,26.5,N/A,,Overcast,280,2012-11-24 20:53:00
4:53 PM,36.0,18.0,48,30.01,10.0,WNW,18.4,27.6,N/A,,Mostly Cloudy,290,2012-11-24 21:53:00
5:53 PM,36.0,18.0,48,30.03,10.0,West,16.1,-,N/A,,Overcast,280,2012-11-24 22:53:00
6:53 PM,34.0,18.0,52,30.04,10.0,West,11.5,-,N/A,,Overcast,280,2012-11-24 23:53:00
7:53 PM,35.1,17.1,48,30.04,10.0,West,10.4,-,N/A,,Overcast,270,2012-11-25 00:53:00
8:53 PM,35.1,16.0,46,30.06,10.0,West,11.5,-,N/A,,Overcast,280,2012-11-25 01:53:00
9:53 PM,34.0,16.0,48,30.06,10.0,WNW,12.7,-,N/A,,Overcast,290,2012-11-25 02:53:00
10:53 PM,34.0,15.1,46,30.06,10.0,WNW,18.4,-,N/A,,Partly Cloudy,290,2012-11-25 03:53:00
11:53 PM,33.1,14.0,46,30.05,10.0,WNW,18.4,-,N/A,,Mostly Cloudy,290,2012-11-25 04:53:00